Terug naar catalogus

CZ-6A R/B

ActiefPO
NORAD 65233·ROCKET BODY·🇨🇳 China

Gelanceerd Aug 17, 2025 vanaf Taiyuan Satellite Launch Center

Loading…

Volgende Passages (komende 24 uur)

TLE

VersSource: Space-Track

Epoch: Sep 14, 2026, 21:29 UTC

1 65233U 25178F   26257.89562835  .00000046  00000-0  20494-4 0  9993
2 65233  86.5121 327.5256 0102855 353.2851   6.6937 13.94630434 54829

Volg CZ-6A R/B in realtime met AllMySat

Download on the App Store